Home > Time Zones > World Clock > Weather > Iran > Gorgan > Past weeks

Flag for Iran Weather past 2 weeks in Gorgan, Iran

Now
91 °F

Passing clouds.


Feels Like: 94 °F
Forecast: 75 / 90 °F
Wind: No wind

Location: Gorgan Airport

Current Time: Aug 30, 2015 at 3:31:56 PM

Latest Report: Aug 30, 2015 at 2:30 PM


Visibility: N/A

Pressure: 29.95 "Hg

Humidity: 44%

Dew point: 66 °F

Location of GorganLocation

Historic Weather in Gorgan — Graph

°F

Gorgan temperature yesterday

Maximum temperature yesterday: 88 °F (at 1:30 PM)
Minimum temperature yesterday: 70 °F (at 4:30 AM)
Average temperature yesterday: 78 °F

Past Weeks' High & Low Weather Summary

 TemperatureHumidityPressure
High106 °F (Aug 16, 2:30 PM)94% (Aug 16, 11:30 PM)30.12 "Hg (Aug 16, 11:30 PM)
Low66 °F (Aug 28, 2:30 AM)25% (Aug 16, 2:30 PM)29.50 "Hg (Aug 17, 3:30 AM)
Average82 °F72%29.88 "Hg
* Reported Aug 15 2:30 PM — Aug 30 2:30 PM, Gorgan, Weather by CustomWeather, © 2015

Note: Actual official high and low records may vary slightly from our data, if they occured in-between our weather recording intervals... More about our weather records

Advertising

Gorgan weather history for previous 24 hours

 ConditionsComfort  
Time TempWeatherWind HumidityBarometerVisibility
2:30 PM
Sun, Aug 30
91 °FPassing clouds.No wind44%29.95 "HgN/A
1:30 PM88 °FPassing clouds.7 mph49%29.98 "HgN/A
12:30 PM86 °FScattered clouds.9 mph52%30.01 "HgN/A
12:00 PM86 °FScattered clouds.7 mph55%30.01 "HgN/A
11:30 AM86 °FScattered clouds.7 mph59%30.01 "HgN/A
10:30 AM82 °FScattered clouds.5 mph66%30.04 "HgN/A
9:30 AM81 °FPassing clouds.No wind70%30.04 "HgN/A
8:30 AM79 °FPassing clouds.12 mph74%30.04 "HgN/A
6:30 AM73 °FPassing clouds.7 mph83%30.07 "HgN/A
5:30 AM73 °FPassing clouds.7 mph83%30.07 "HgN/A
4:30 AM73 °FPassing clouds.5 mph83%30.07 "HgN/A
3:30 AM75 °FClear.7 mph83%30.07 "Hg10 mi
2:30 AM75 °FClear.7 mph83%30.07 "Hg10 mi
1:30 AM75 °FPassing clouds.7 mph83%30.07 "HgN/A
12:30 AM75 °FPassing clouds.9 mph83%30.09 "HgN/A
11:30 PM
Sat, Aug 29
75 °FPassing clouds.9 mph83%30.09 "HgN/A
10:30 PM75 °FPassing clouds.7 mph83%30.09 "HgN/A
9:30 PM77 °FPassing clouds.7 mph79%30.09 "HgN/A
8:30 PM77 °FPassing clouds.7 mph79%30.09 "HgN/A
7:30 PM81 °FPassing clouds.9 mph66%30.07 "HgN/A
6:30 PM84 °FPassing clouds.12 mph55%30.07 "HgN/A
5:30 PM88 °FPassing clouds.12 mph52%30.07 "HgN/A
4:30 PM88 °FPassing clouds.12 mph52%30.07 "HgN/A
3:30 PM88 °FPassing clouds.12 mph49%30.07 "HgN/A
Weather by CustomWeather, © 2015

See weather overviewHow to use our weather pages